Flag for U.S.A. Weather past 2 weeks in Clarksville, Tennessee, U.S.A.

Now
53 °F

Overcast.


Feels Like: 49 °F
Forecast: 41 / 55 °F
Wind: 14 mph from Southeast

Location: Outlaw Field

Current Time: Dec 22, 2014 at 3:03:49 PM

Latest Report: Dec 22, 2014 at 1:52 PM


Visibility: 10 mi

Pressure: 29.73 "Hg

Humidity: 80%

Dew point: 47 °F

Location of ClarksvilleLocation

Historic Weather in Clarksville — Graph

°F

Clarksville temperature yesterday

Maximum temperature yesterday: 50 °F (at 1:52 PM)
Minimum temperature yesterday: 23 °F (at 4:52 AM)
Average temperature yesterday: 36 °F

Past Weeks' High & Low Weather Summary

 TemperatureHumidityPressure
High57 °F (Dec 15, 10:52 PM)100% (Dec 15, 1:52 AM)30.46 "Hg (Dec 15, 1:52 AM)
Low21 °F (Dec 12, 4:52 AM)46% (Dec 21, 2:52 PM)29.73 "Hg (Dec 22, 1:52 PM)
Average39 °F78%30.21 "Hg
* Reported Dec 7 1:52 PM — Dec 22 1:52 PM, Clarksville, Weather by CustomWeather, © 2014

Note: Actual official high and low records may vary slightly from our data, if they occured in-between our weather recording intervals... More about our weather records

Advertising

Clarksville weather history for previous 24 hours

 ConditionsComfort  
Time TempWeatherWind HumidityBarometerVisibility
1:52 PM
Dec 22
53 °FOvercast.14 mph80%29.73 "Hg10 mi
12:52 PM53 °FOvercast.9 mph80%29.76 "Hg10 mi
11:52 AM52 °FOvercast.13 mph80%29.80 "Hg10 mi
10:52 AM51 °FMostly cloudy.12 mph83%29.84 "Hg10 mi
9:52 AM51 °FMostly cloudy.15 mph83%29.87 "Hg10 mi
8:52 AM50 °FOvercast.7 mph86%29.89 "Hg9 mi
7:52 AM48 °FOvercast.6 mph89%29.91 "Hg9 mi
6:52 AM46 °FOvercast.9 mph89%29.91 "Hg9 mi
5:52 AM45 °FOvercast.8 mph90%29.92 "Hg9 mi
5:01 AM43 °FMostly cloudy.7 mph93%29.92 "Hg9 mi
3:52 AM44 °FOvercast.7 mph89%29.93 "Hg10 mi
2:52 AM42 °FMostly cloudy.7 mph85%29.94 "Hg10 mi
1:52 AM37 °FOvercast.6 mph86%29.97 "Hg10 mi
12:52 AM37 °FOvercast.No wind79%29.97 "Hg10 mi
11:52 PM
Dec 21
38 °FClear.3 mph76%29.98 "Hg10 mi
10:52 PM40 °FPassing clouds.6 mph73%30.00 "Hg10 mi
9:52 PM39 °FPassing clouds.5 mph73%30.03 "Hg10 mi
8:52 PM41 °FPassing clouds.7 mph70%30.04 "Hg10 mi
7:52 PM38 °FClear.6 mph73%30.06 "Hg10 mi
6:52 PM41 °FClear.6 mph65%30.07 "Hg10 mi
5:52 PM43 °FPassing clouds.6 mph62%30.08 "Hg10 mi
4:52 PM44 °FClear.6 mph60%30.08 "Hg10 mi
3:52 PM48 °FClear.6 mph52%30.09 "Hg10 mi
Weather by CustomWeather, © 2014

See weather overviewHow to use our weather pages